This is the latest recevied weather packets stored in our database for station/object K5MGY. If no packets are shown the sender has not sent any weather packets the latest 10 day(s).
| Time | Temp. | Humidity | Pressure | Rain* | Wind** | Luminosity | Snow |
|---|---|---|---|---|---|---|---|
| 1778090768 | 14.44° C | 80% | 1038.2 hPa | 0 mm | - | 149 W/m² | - |
| 1778090465 | 13.89° C | 82% | 1037.6 hPa | 0 mm | - | 183 W/m² | - |
| 1778090161 | 13.89° C | 82% | 1037.4 hPa | 0 mm | - | 149 W/m² | - |
| 1778089857 | 13.89° C | 82% | 1037.4 hPa | 0 mm | - | 116 W/m² | - |
| 1778089556 | 13.89° C | 83% | 1037.3 hPa | 0 mm | - | 123 W/m² | - |
| 1778089251 | 13.89° C | 83% | 1037.7 hPa | 0 mm | - | 91 W/m² | - |
| 1778088950 | 13.89° C | 83% | 1037.9 hPa | 0 mm | - | 98 W/m² | - |
| 1778088646 | 13.89° C | 83% | 1038 hPa | 0 mm | - | 121 W/m² | - |
| 1778088344 | 13.89° C | 84% | 1038.7 hPa | 0 mm | - | 98 W/m² | - |
| 1778088040 | 13.89° C | 85% | 1038.6 hPa | 0 mm | - | 95 W/m² | - |
| 1778087737 | 13.89° C | 86% | 1038.3 hPa | 0 mm | - | 101 W/m² | - |
| 1778087435 | 13.33° C | 85% | 1038.5 hPa | 0 mm | - | 93 W/m² | - |
| 1778087132 | 13.33° C | 86% | 1038.3 hPa | 0 mm | - | 113 W/m² | - |
| 1778086830 | 13.33° C | 86% | 1038.6 hPa | 0 mm | - | 78 W/m² | - |
| 1778086528 | 13.33° C | 87% | 1039.1 hPa | 0 mm | - | 98 W/m² | - |
| 1778086224 | 12.78° C | 86% | 1039.2 hPa | 0 mm | - | 55 W/m² | - |
| 1778085921 | 13.33° C | 86% | 1038.9 hPa | 0 mm | - | 56 W/m² | - |
| 1778085618 | 13.33° C | 86% | 1038.3 hPa | 0 mm | - | 51 W/m² | - |
| 1778085314 | 13.33° C | 86% | 1038.5 hPa | 0 mm | - | 40 W/m² | - |
| 1778085010 | 13.33° C | 87% | 1038.4 hPa | 0 mm | - | 53 W/m² | - |
| 1778084706 | 13.33° C | 86% | 1038.7 hPa | 0 mm | - | 52 W/m² | - |
| 1778084404 | 13.89° C | 85% | 1038.4 hPa | 0 mm | - | 63 W/m² | - |
| 1778084101 | 13.89° C | 87% | 1038.2 hPa | 0 mm | - | 108 W/m² | - |
| 1778083798 | 13.89° C | 87% | 1038.3 hPa | 0 mm | - | 121 W/m² | - |
| 1778083495 | 13.89° C | 89% | 1038.6 hPa | 0 mm | - | 118 W/m² | - |
* Rain latest hour (hover to see other rain measurements)
** Current wind speed in m/s (hover to see current wind gust speed)